Location: *
(44.3683°N, 6.6958°E)
Time: 07:18:40
(UTC+00:00)

Cosmos 921 Rocket - Pass Details

Date: 14 October 2019
Orbit: 573 x 631 km, 75.8° (Epoch: 19 November)

Event Time Altitude Azimuth Distance (km) Brightness Sun altitude
Rises 17:58:13 0° 188° (S) 2,909 6.6 -12.7°
Reaches altitude 10° 18:00:29 10° 185° (S) 2,006 5.7 -13.1°
Maximum altitude 18:04:55 64° 105° (ESE) 701 3.0 -13.9°
Drops below altitude 10° 18:09:22 10° 24° (NNE) 2,007 5.5 -14.7°
Sets 18:11:37 0° 22° (NNE) 2,911 6.3 -15.1°
